Weather History for PAGK - July, 2014

Change the Weather History Date:

Friday, July 4, 2014

  Actual Average (WUND) Record (WUND)
Temperature  
Mean Temperature 62 °F -  
Max Temperature 79 °F - - (-1)
Min Temperature 46 °F - - (-1)
Degree Days  
Heating Degree Days 2    
Growing Degree Days 12 (Base 50)    
Moisture  
Dew Point 42 °F    
Average Humidity 44    
Maximum Humidity 83    
Minimum Humidity 16    
Precipitation  
Precipitation 0.00 in - - ()
Sea Level Pressure  
Sea Level Pressure 29.77 in    
Wind  
Wind Speed 7 mph (NNW)    
Max Wind Speed 12 mph    
Max Gust Speed 21 mph    
Visibility 10 miles    
Events      
Averages and records for this station are not official NWS values.
T = Trace of Precipitation, MM = Missing Value Source: NWS Daily Summary

Daily Weather History Graph

Daily Weather History Graph

Search for Another Location

Airport or City:

Trip Planner

Search our weather history database for the weather conditions in past years. The results will help you decide how hot, cold, wet, or windy it might be!

Date:

Astronomy

Jul. 04, 2014 Rise Set
Actual Time 4:01 AM AKDT 11:30 PM AKDT
Civil Twilight 2:18 AM AKDT 1:13 AM AKDT
Nautical Twilight Sun does not rise Sun does not rise
Astronomical Twilight Sun does not rise Sun does not rise
Moon 1:40 PM AKDT (7/4) 12:33 AM AKDT (7/4)
Length of Visible Light 22h 55m
Length of Day
19h 29m
Waxing Crescent, 43% of the Moon is Illuminated
Jul 4
Waxing Crescent
Jul 5
First Quarter
Jul 12
Full
Jul 18
Last Quarter
Jul 26
New

Hourly Weather History & Observations

Time (AKDT) Temp. Windchill Dew Point Humidity Pressure Visibility Wind Dir Wind Speed Gust Speed Precip Events Conditions
12:53 AM 50.0 °F - 44.1 °F 80% 29.81 in 10.0 mi North 4.6 mph - N/A   Clear
1:53 AM 53.1 °F - 44.1 °F 71% 29.82 in 10.0 mi North 8.1 mph - N/A   Clear
2:53 AM 53.1 °F - 44.1 °F 71% 29.82 in 10.0 mi North 8.1 mph - N/A   Clear
3:53 AM 51.1 °F - 44.1 °F 77% 29.83 in 10.0 mi WNW 4.6 mph - N/A   Clear
4:53 AM 46.0 °F 44.8 °F 41.0 °F 83% 29.84 in 10.0 mi West 3.5 mph - N/A   Clear
5:53 AM 50.0 °F - 43.0 °F 77% 29.84 in 10.0 mi West 3.5 mph - N/A   Clear
6:53 AM 55.0 °F - 44.1 °F 67% 29.83 in 10.0 mi WNW 3.5 mph - N/A   Clear
7:53 AM 61.0 °F - 45.0 °F 56% 29.82 in 10.0 mi NW 5.8 mph - N/A   Clear
8:53 AM 64.0 °F - 46.0 °F 52% 29.81 in 10.0 mi NW 5.8 mph - N/A   Clear
9:53 AM 68.0 °F - 45.0 °F 43% 29.79 in 10.0 mi North 8.1 mph - N/A   Clear
10:53 AM 73.0 °F - 45.0 °F 37% 29.78 in 10.0 mi North 9.2 mph - N/A   Clear
11:53 AM 73.0 °F - 44.1 °F 35% 29.77 in 10.0 mi North 8.1 mph - N/A   Clear
12:53 PM 75.0 °F - 43.0 °F 32% 29.77 in 10.0 mi North 9.2 mph - N/A   Scattered Clouds
1:53 PM 75.9 °F - 39.9 °F 27% 29.76 in 10.0 mi NNE 11.5 mph 20.7 mph N/A   Clear
2:53 PM 77.0 °F - 41.0 °F 28% 29.75 in 10.0 mi North 11.5 mph - N/A   Clear
3:53 PM 78.1 °F - 39.9 °F 25% 29.74 in 10.0 mi North 10.4 mph 17.3 mph N/A   Clear
4:53 PM 78.1 °F - 37.0 °F 23% 29.73 in 10.0 mi North 8.1 mph - N/A   Clear
5:53 PM 79.0 °F - 39.9 °F 25% 29.71 in 10.0 mi North 11.5 mph 19.6 mph N/A   Partly Cloudy
6:53 PM 78.1 °F - 39.0 °F 25% 29.70 in 10.0 mi NNE 9.2 mph - N/A   Partly Cloudy
7:53 PM 77.0 °F - 39.9 °F 26% 29.69 in 10.0 mi North 8.1 mph - N/A   Partly Cloudy
8:53 PM 72.0 °F - 39.9 °F 31% 29.69 in 10.0 mi NNW 9.2 mph - N/A   Clear
9:53 PM 71.1 °F - 41.0 °F 34% 29.70 in 10.0 mi North 10.4 mph - N/A   Scattered Clouds
10:53 PM 69.1 °F - 41.0 °F 36% 29.70 in 10.0 mi NNW 10.4 mph - N/A   Clear
11:53 PM 66.0 °F - 42.1 °F 42% 29.71 in 10.0 mi NNW 10.4 mph - N/A   Clear